| time (UTC) | temp F | wind direction | speed knots | gust knots | rain 1hr in | rain 24hr in | rain mn in | humidity % | barometer mb |
| 20260504045727 | 78 | 222 | 3.5 | 4.3 | 0.00 | 0.54 | 0.54 | 9 | 1017.8 |
| 20260504042727 | 79 | 237 | 1.7 | 3.5 | 0.00 | 0.54 | 0.54 | 9 | 1017.7 |
| 20260504035727 | 79 | 227 | 2.6 | 3.5 | 0.00 | 0.54 | 0.54 | 9 | 1017.6 |
| 20260504032727 | 78 | 217 | 2.6 | 4.3 | 0.14 | 0.54 | 0.54 | 9 | 1017.5 |
| 20260504025727 | 78 | 208 | 2.6 | 3.5 | 0.15 | 0.54 | 0.54 | 9 | 1017.3 |
| 20260504022727 | 79 | 167 | 0.0 | 1.7 | 0.01 | 0.40 | 0.40 | 9 | 1016.8 |
| 20260504015727 | 79 | 217 | 3.5 | 5.2 | 0.00 | 0.38 | 0.38 | 9 | 1016.5 |
| 20260504012727 | 81 | 187 | 0.9 | 3.5 | 0.00 | 0.38 | 0.38 | 9 | 1016.3 |
| 20260504005727 | 80 | 204 | 1.7 | 3.5 | 0.00 | 0.38 | 0.38 | 9 | 1016.0 |
| 20260504002727 | 81 | 247 | 1.7 | 4.3 | 0.00 | 0.38 | 0.38 | 9 | 1015.3 |
| 20260503211603 | 87 | 61 | 2.6 | 4.3 | 0.00 | 0.00 | 0.00 | 8 | 1015.0 |
| 20260503204603 | 87 | 227 | 3.5 | 5.2 | 0.00 | 0.00 | 0.00 | 8 | 1015.2 |
| 20260503201603 | 88 | 242 | 2.6 | 4.3 | 0.00 | 0.00 | 0.00 | 7 | 1015.5 |
| 20260503194603 | 87 | 233 | 3.5 | 6.1 | 0.00 | 0.00 | 0.00 | 8 | 1015.9 |
| 20260503191603 | 87 | 222 | 5.2 | 7.0 | 0.00 | 0.00 | 0.00 | 8 | 1016.4 |
| 20260503184603 | 89 | 233 | 4.3 | 6.1 | 0.00 | 0.00 | 0.00 | 7 | 1016.7 |
| 20260503181603 | 87 | 222 | 5.2 | 7.8 | 0.00 | 0.00 | 0.00 | 8 | 1017.1 |
| 20260503174603 | 85 | 238 | 3.5 | 7.0 | 0.00 | 0.00 | 0.00 | 8 | 1017.5 |
| 20260503171603 | 86 | 198 | 3.5 | 6.1 | 0.00 | 0.00 | 0.00 | 8 | 1017.7 |
| 20260503081603 | 84 | 157 | 0.0 | 2.6 | 0.00 | 0.00 | 0.00 | 8 | 1014.3 |
| 20260503071603 | 83 | 218 | 2.6 | 4.3 | 0.00 | 0.00 | 0.00 | 8 | 1014.7 |